| time (UTC) | temp C | wind direction | speed KPH | gust KPH | rain 1hr cm | rain 24hr cm | rain mn cm | humidity % | barometer mb |
| 20260906222516 | 28 | 234 | 4.8 | 11.3 | 0.00 | 0.00 | 0.00 | 41 | 1014.4 |
| 20260906221516 | 29 | 261 | 4.8 | 9.7 | 0.00 | 0.00 | 0.00 | 39 | 1014.3 |
| 20260906220514 | 29 | 286 | 6.4 | 11.3 | 0.00 | 0.00 | 0.00 | 39 | 1014.5 |
| 20260906215515 | 30 | 293 | 6.4 | 14.5 | 0.00 | 0.00 | 0.00 | 38 | 1014.5 |
| 20260906215006 | 30 | 261 | 6.4 | 12.9 | 0.00 | 0.00 | 0.00 | 37 | 1014.8 |
| 20260906213951 | 30 | 295 | 3.2 | 12.9 | 0.00 | 0.00 | 0.00 | 38 | 1014.9 |
| 20260906212515 | 30 | 46 | 1.6 | 8.0 | 0.00 | 0.00 | 0.00 | 37 | 1015.1 |
| 20260906211515 | 29 | 52 | 0.0 | 4.8 | 0.00 | 0.00 | 0.00 | 39 | 1015.1 |
| 20260906210514 | 28 | 52 | 0.0 | 4.8 | 0.00 | 0.00 | 0.00 | 41 | 1015.5 |
| 20260906205514 | 29 | 52 | 0.0 | 3.2 | 0.00 | 0.00 | 0.00 | 38 | 1015.6 |
| 20260906204515 | 29 | 53 | 0.0 | 0.0 | 0.00 | 0.00 | 0.00 | 40 | 1015.6 |
| 20260906203515 | 30 | 53 | 0.0 | 1.6 | 0.00 | 0.00 | 0.00 | 36 | 1015.7 |
| 20260906202516 | 29 | 53 | 1.6 | 9.7 | 0.00 | 0.00 | 0.00 | 38 | 1015.8 |
| 20260906201950 | 30 | 47 | 3.2 | 11.3 | 0.00 | 0.00 | 0.00 | 36 | 1015.9 |
| 20260906200515 | 30 | 63 | 1.6 | 9.7 | 0.00 | 0.00 | 0.00 | 37 | 1015.9 |
| 20260906195515 | 30 | 304 | 4.8 | 11.3 | 0.00 | 0.00 | 0.00 | 38 | 1016.0 |
| 20260906194516 | 30 | 335 | 3.2 | 11.3 | 0.00 | 0.00 | 0.00 | 39 | 1016.0 |
| 20260906193512 | 30 | 56 | 3.2 | 11.3 | 0.00 | 0.00 | 0.00 | 39 | 1016.2 |
| 20260906192512 | 30 | 356 | 3.2 | 11.3 | 0.00 | 0.00 | 0.00 | 38 | 1016.3 |
| 20260906191512 | 30 | 53 | 1.6 | 8.0 | 0.00 | 0.00 | 0.00 | 41 | 1016.5 |
| 20260906190512 | 29 | 341 | 3.2 | 11.3 | 0.00 | 0.00 | 0.00 | 44 | 1016.6 |
| 20260906185513 | 29 | 46 | 3.2 | 11.3 | 0.00 | 0.00 | 0.00 | 44 | 1016.9 |
| 20260906184513 | 29 | 13 | 1.6 | 6.4 | 0.00 | 0.00 | 0.00 | 46 | 1017.0 |
| 20260906183507 | 28 | 58 | 1.6 | 8.0 | 0.00 | 0.00 | 0.00 | 46 | 1017.2 |
| 20260906182506 | 27 | 319 | 3.2 | 11.3 | 0.00 | 0.00 | 0.00 | 50 | 1017.4 |
| 20260906181507 | 27 | 44 | 1.6 | 6.4 | 0.00 | 0.00 | 0.00 | 50 | 1017.6 |
| 20260906180947 | 27 | 44 | 3.2 | 11.3 | 0.00 | 0.00 | 0.00 | 51 | 1017.7 |
| 20260906175507 | 27 | 47 | 1.6 | 9.7 | 0.00 | 0.00 | 0.00 | 50 | 1017.9 |
| 20260906174507 | 26 | 51 | 6.4 | 14.5 | 0.00 | 0.00 | 0.00 | 50 | 1018.1 |
| 20260906173504 | 26 | 68 | 4.8 | 11.3 | 0.00 | 0.00 | 0.00 | 51 | 1018.5 |
| 20260906172505 | 26 | 46 | 1.6 | 11.3 | 0.00 | 0.00 | 0.00 | 54 | 1018.7 |
| 20260906171505 | 25 | 174 | 3.2 | 9.7 | 0.00 | 0.00 | 0.00 | 55 | 1018.8 |
| 20260906170500 | 25 | 46 | 1.6 | 8.0 | 0.00 | 0.00 | 0.00 | 59 | 1018.7 |
| 20260906165939 | 25 | 335 | 1.6 | 8.0 | 0.00 | 0.00 | 0.00 | 60 | 1019.0 |
| 20260906164459 | 23 | 46 | 3.2 | 8.0 | 0.00 | 0.00 | 0.00 | 62 | 1019.1 |
| 20260906163458 | 23 | 46 | 1.6 | 8.0 | 0.00 | 0.00 | 0.00 | 63 | 1019.2 |
| 20260906162458 | 23 | 47 | 1.6 | 4.8 | 0.00 | 0.00 | 0.00 | 66 | 1019.2 |
| 20260906161500 | 22 | 47 | 3.2 | 6.4 | 0.00 | 0.00 | 0.00 | 66 | 1019.2 |
| 20260906160458 | 23 | 51 | 0.0 | 8.0 | 0.00 | 0.00 | 0.00 | 64 | 1019.1 |
| 20260906155458 | 23 | 182 | 1.6 | 4.8 | 0.00 | 0.00 | 0.00 | 67 | 1019.1 |
| 20260906154459 | 22 | 345 | 1.6 | 4.8 | 0.00 | 0.00 | 0.00 | 69 | 1019.1 |
| 20260906153459 | 21 | 174 | 3.2 | 8.0 | 0.00 | 0.00 | 0.00 | 72 | 1019.2 |
| 20260906152458 | 21 | 52 | 1.6 | 4.8 | 0.00 | 0.00 | 0.00 | 73 | 1019.2 |
| 20260906151459 | 21 | 87 | 1.6 | 8.0 | 0.00 | 0.00 | 0.00 | 75 | 1019.3 |
| 20260906150458 | 21 | 84 | 0.0 | 3.2 | 0.00 | 0.00 | 0.00 | 75 | 1019.3 |
| 20260906145458 | 20 | 51 | 0.0 | 3.2 | 0.00 | 0.00 | 0.00 | 77 | 1019.4 |
| 20260906144459 | 19 | 51 | 0.0 | 3.2 | 0.00 | 0.00 | 0.00 | 79 | 1019.4 |
| 20260906143458 | 20 | 51 | 0.0 | 3.2 | 0.00 | 0.00 | 0.00 | 78 | 1019.4 |
| 20260906142932 | 20 | 51 | 1.6 | 6.4 | 0.00 | 0.00 | 0.00 | 77 | 1019.4 |
| 20260906141453 | 19 | 74 | 1.6 | 6.4 | 0.00 | 0.00 | 0.00 | 78 | 1019.2 |
| 20260906140454 | 18 | 324 | 1.6 | 4.8 | 0.00 | 0.00 | 0.00 | 79 | 1019.4 |
| 20260906135452 | 18 | 291 | 3.2 | 6.4 | 0.00 | 0.00 | 0.00 | 80 | 1019.2 |
| 20260906135415 | 18 | 293 | 0.0 | 4.8 | 0.00 | 0.00 | 0.00 | 80 | 1019.2 |
| 20260906133451 | 17 | 268 | 0.0 | 3.2 | 0.00 | 0.00 | 0.00 | 81 | 1019.2 |
| 20260906133413 | 16 | 271 | 0.0 | 1.6 | 0.00 | 0.00 | 0.00 | 82 | 1019.2 |
| 20260906131941 | 16 | 295 | 0.0 | 3.2 | 0.00 | 0.00 | 0.00 | 82 | 1019.1 |
| 20260906130453 | 15 | 295 | 0.0 | 0.0 | 0.00 | 0.00 | 0.00 | 83 | 1019.2 |
| 20260906125452 | 15 | 296 | 0.0 | 0.0 | 0.00 | 0.00 | 0.00 | 84 | 1019.1 |
| 20260906124447 | 15 | 296 | 0.0 | 0.0 | 0.00 | 0.00 | 0.00 | 83 | 1019.0 |
| 20260906123447 | 15 | 296 | 0.0 | 0.0 | 0.00 | 0.00 | 0.00 | 83 | 1018.8 |
| 20260906122929 | 15 | 296 | 0.0 | 0.0 | 0.00 | 0.00 | 0.00 | 83 | 1019.0 |
| 20260906121447 | 15 | 296 | 0.0 | 1.6 | 0.00 | 0.00 | 0.00 | 82 | 1018.8 |
| 20260906120447 | 15 | 296 | 0.0 | 0.0 | 0.00 | 0.00 | 0.00 | 82 | 1018.7 |
| 20260906115918 | 15 | 296 | 0.0 | 1.6 | 0.00 | 0.00 | 0.00 | 81 | 1018.8 |
| 20260906114446 | 16 | 297 | 0.0 | 0.0 | 0.00 | 0.00 | 0.00 | 81 | 1018.7 |
| 20260906113447 | 16 | 297 | 0.0 | 0.0 | 0.00 | 0.00 | 0.00 | 80 | 1018.7 |
| 20260906112447 | 16 | 296 | 0.0 | 0.0 | 0.00 | 0.00 | 0.00 | 77 | 1018.7 |
| 20260906111444 | 16 | 296 | 0.0 | 1.6 | 0.00 | 0.00 | 0.00 | 76 | 1018.5 |
| 20260906110443 | 17 | 296 | 0.0 | 1.6 | 0.00 | 0.00 | 0.00 | 73 | 1018.5 |
| 20260906105443 | 17 | 297 | 1.6 | 4.8 | 0.00 | 0.00 | 0.00 | 73 | 1018.6 |
| 20260906104921 | 17 | 298 | 0.0 | 3.2 | 0.00 | 0.00 | 0.00 | 72 | 1018.7 |
| 20260906103444 | 17 | 296 | 0.0 | 3.2 | 0.00 | 0.00 | 0.00 | 72 | 1018.6 |
| 20260906102442 | 17 | 226 | 0.0 | 0.0 | 0.00 | 0.00 | 0.00 | 73 | 1018.6 |
| 20260906101442 | 17 | 226 | 0.0 | 0.0 | 0.00 | 0.00 | 0.00 | 73 | 1018.6 |
| 20260906100928 | 17 | 214 | 0.0 | 0.0 | 0.00 | 0.00 | 0.00 | 72 | 1018.6 |
| 20260906095926 | 17 | 214 | 0.0 | 0.0 | 0.00 | 0.00 | 0.00 | 70 | 1018.6 |
| 20260906094441 | 17 | 214 | 0.0 | 0.0 | 0.00 | 0.00 | 0.00 | 68 | 1018.5 |
| 20260906093440 | 18 | 214 | 0.0 | 0.0 | 0.00 | 0.00 | 0.00 | 66 | 1018.6 |
| 20260906092440 | 18 | 214 | 0.0 | 0.0 | 0.00 | 0.00 | 0.00 | 65 | 1018.5 |
| 20260906091440 | 18 | 181 | 1.6 | 4.8 | 0.00 | 0.00 | 0.00 | 65 | 1018.3 |
| 20260906090440 | 19 | 72 | 0.0 | 3.2 | 0.00 | 0.00 | 0.00 | 63 | 1018.0 |
| 20260906085920 | 19 | 72 | 0.0 | 3.2 | 0.00 | 0.00 | 0.00 | 61 | 1017.8 |
| 20260906084440 | 20 | 62 | 0.0 | 1.6 | 0.00 | 0.00 | 0.00 | 60 | 1017.8 |
| 20260906083439 | 20 | 302 | 1.6 | 4.8 | 0.00 | 0.00 | 0.00 | 59 | 1017.7 |
| 20260906082440 | 19 | 276 | 1.6 | 6.4 | 0.00 | 0.00 | 0.00 | 60 | 1017.6 |
| 20260906081440 | 19 | 315 | 0.0 | 0.0 | 0.00 | 0.00 | 0.00 | 60 | 1017.7 |
| 20260906081406 | 20 | 258 | 1.6 | 3.2 | 0.00 | 0.00 | 0.00 | 58 | 1017.7 |
| 20260906075437 | 19 | 293 | 0.0 | 1.6 | 0.00 | 0.00 | 0.00 | 62 | 1017.7 |
| 20260906074917 | 19 | 293 | 0.0 | 1.6 | 0.00 | 0.00 | 0.00 | 62 | 1017.7 |
| 20260906073433 | 19 | 261 | 0.0 | 1.6 | 0.00 | 0.00 | 0.00 | 60 | 1017.8 |
| 20260906072432 | 20 | 274 | 1.6 | 6.4 | 0.00 | 0.00 | 0.00 | 59 | 1017.8 |
| 20260906071433 | 20 | 232 | 1.6 | 4.8 | 0.00 | 0.00 | 0.00 | 59 | 1017.9 |
| 20260906070432 | 21 | 175 | 0.0 | 0.0 | 0.00 | 0.00 | 0.00 | 56 | 1017.6 |
| 20260906065431 | 21 | 176 | 0.0 | 4.8 | 0.00 | 0.00 | 0.00 | 55 | 1017.8 |
| 20260906064433 | 22 | 99 | 0.0 | 4.8 | 0.00 | 0.00 | 0.00 | 54 | 1017.7 |
| 20260906063433 | 22 | 302 | 0.0 | 3.2 | 0.00 | 0.00 | 0.00 | 51 | 1017.7 |
| 20260906062431 | 23 | 308 | 1.6 | 4.8 | 0.00 | 0.00 | 0.00 | 50 | 1017.8 |
| 20260906061431 | 23 | 313 | 3.2 | 6.4 | 0.00 | 0.00 | 0.00 | 49 | 1017.9 |
| 20260906060432 | 23 | 265 | 4.8 | 3.2 | 0.00 | 0.00 | 0.00 | 49 | 1017.4 |
| 20260906055225 | 23 | 52 | 0.0 | 0.0 | 0.00 | 0.00 | 0.00 | 48 | 1017.6 |
| 20260906054705 | 23 | 52 | 0.0 | 0.0 | 0.00 | 0.00 | 0.00 | 47 | 1018.0 |
| 20260906053225 | 23 | 73 | 1.6 | 6.4 | 0.00 | 0.00 | 0.00 | 47 | 1018.3 |
| 20260906052226 | 23 | 96 | 8.0 | 14.5 | 0.00 | 0.00 | 0.00 | 50 | 1018.4 |
| 20260906051225 | 23 | 84 | 3.2 | 9.7 | 0.00 | 0.00 | 0.00 | 47 | 1018.3 |
| 20260906050704 | 23 | 82 | 1.6 | 6.4 | 0.00 | 0.00 | 0.00 | 45 | 1017.8 |
| 20260906045226 | 23 | 61 | 0.0 | 3.2 | 0.00 | 0.00 | 0.00 | 43 | 1017.7 |
| 20260906044225 | 23 | 61 | 0.0 | 6.4 | 0.00 | 0.00 | 0.00 | 43 | 1017.6 |
| 20260906043220 | 23 | 56 | 3.2 | 6.4 | 0.00 | 0.00 | 0.00 | 45 | 1017.6 |
| 20260906042220 | 23 | 5 | 0.0 | 1.6 | 0.00 | 0.00 | 0.00 | 43 | 1017.6 |
| 20260906041219 | 23 | 224 | 1.6 | 4.8 | 0.00 | 0.00 | 0.00 | 45 | 1017.4 |
| 20260906041133 | 22 | 224 | 1.6 | 6.4 | 0.00 | 0.00 | 0.00 | 46 | 1017.3 |
| 20260906035656 | 22 | 159 | 0.0 | 0.0 | 0.00 | 0.00 | 0.00 | 46 | 1017.1 |
| 20260906034220 | 23 | 56 | 0.0 | 0.0 | 0.00 | 0.00 | 0.00 | 46 | 1016.6 |
| 20260906033220 | 23 | 56 | 0.0 | 4.8 | 0.00 | 0.00 | 0.00 | 43 | 1016.6 |
| 20260906032220 | 23 | 65 | 1.6 | 8.0 | 0.00 | 0.00 | 0.00 | 44 | 1016.7 |
| 20260906031220 | 24 | 54 | 0.0 | 4.8 | 0.00 | 0.00 | 0.00 | 43 | 1016.7 |
| 20260906030215 | 25 | 55 | 0.0 | 4.8 | 0.00 | 0.00 | 0.00 | 42 | 1016.3 |
| 20260906025214 | 25 | 60 | 1.6 | 6.4 | 0.00 | 0.00 | 0.00 | 40 | 1015.9 |
| 20260906024214 | 26 | 97 | 6.4 | 9.7 | 0.00 | 0.00 | 0.00 | 37 | 1015.8 |
| 20260906023648 | 27 | 147 | 3.2 | 9.7 | 0.00 | 0.00 | 0.00 | 34 | 1015.8 |
| 20260906022214 | 27 | 53 | 1.6 | 8.0 | 0.00 | 0.00 | 0.00 | 34 | 1015.6 |
| 20260906021647 | 27 | 353 | 0.0 | 4.8 | 0.00 | 0.00 | 0.00 | 34 | 1015.5 |
| 20260906020213 | 28 | 260 | 3.2 | 11.3 | 0.00 | 0.00 | 0.00 | 33 | 1015.7 |
| 20260906015213 | 28 | 233 | 9.7 | 17.7 | 0.00 | 0.00 | 0.00 | 32 | 1015.7 |
| 20260906014215 | 28 | 226 | 6.4 | 20.9 | 0.00 | 0.00 | 0.00 | 33 | 1015.7 |
| 20260906013211 | 28 | 233 | 4.8 | 16.1 | 0.00 | 0.00 | 0.00 | 33 | 1015.6 |
| 20260906012211 | 28 | 296 | 6.4 | 14.5 | 0.00 | 0.00 | 0.00 | 33 | 1015.5 |
| 20260906011211 | 28 | 265 | 6.4 | 16.1 | 0.00 | 0.00 | 0.00 | 31 | 1015.5 |
| 20260906010211 | 28 | 261 | 9.7 | 17.7 | 0.00 | 0.00 | 0.00 | 31 | 1015.5 |
| 20260906005210 | 29 | 226 | 8.0 | 19.3 | 0.00 | 0.00 | 0.00 | 30 | 1015.6 |
| 20260906004702 | 30 | 281 | 8.0 | 19.3 | 0.00 | 0.00 | 0.00 | 31 | 1015.6 |
| 20260906003211 | 30 | 287 | 9.7 | 19.3 | 0.00 | 0.00 | 0.00 | 29 | 1015.7 |
| 20260906002210 | 30 | 265 | 9.7 | 22.5 | 0.00 | 0.00 | 0.00 | 29 | 1015.6 |
| 20260906001647 | 30 | 258 | 11.3 | 27.4 | 0.00 | 0.00 | 0.00 | 29 | 1015.6 |
| 20260906000212 | 31 | 262 | 6.4 | 16.1 | 0.00 | 0.00 | 0.00 | 28 | 1015.5 |
| 20260905235211 | 31 | 297 | 3.2 | 12.9 | 0.00 | 0.00 | 0.00 | 27 | 1015.5 |
| 20260905234211 | 31 | 297 | 3.2 | 8.0 | 0.00 | 0.00 | 0.00 | 26 | 1015.5 |
| 20260905233210 | 31 | 298 | 4.8 | 11.3 | 0.00 | 0.00 | 0.00 | 26 | 1015.3 |
| 20260905232212 | 32 | 326 | 0.0 | 8.0 | 0.00 | 0.00 | 0.00 | 26 | 1015.2 |
| 20260905231212 | 32 | 297 | 0.0 | 4.8 | 0.00 | 0.00 | 0.00 | 26 | 1015.2 |
| 20260905230211 | 32 | 304 | 1.6 | 4.8 | 0.00 | 0.00 | 0.00 | 25 | 1015.1 |
| 20260905225212 | 32 | 304 | 0.0 | 0.0 | 0.00 | 0.00 | 0.00 | 25 | 1015.1 |
| 20260905225134 | 32 | 304 | 0.0 | 3.2 | 0.00 | 0.00 | 0.00 | 24 | 1015.1 |